Flag for Germany Weather past 2 weeks in Ansbach, Bavaria, Germany

Now
50 °F

Passing clouds.


Feels Like: 47 °F
Forecast: 33 / 57 °F
Wind: 8 mph from Northeast

Location: Ansbach / Katterbach

Current Time: Apr 18, 2015 at 4:16:11 PM

Latest Report: Apr 18, 2015 at 2:58 PM


Visibility: N/A

Pressure: 30.31 "Hg

Humidity: 42%

Dew point: 28 °F

Location of AnsbachLocation

Historic Weather in Ansbach — Graph

°F

Ansbach temperature yesterday

Maximum temperature yesterday: 59 °F (at 12:58 AM)
Minimum temperature yesterday: 42 °F (at 11:58 PM)
Average temperature yesterday: 52 °F

Past Weeks' High & Low Weather Summary

 TemperatureHumidityPressure
High72 °F (Apr 15, 4:58 PM)100% (Apr 5, 6:58 AM)30.69 "Hg (Apr 5, 6:58 AM)
Low27 °F (Apr 7, 6:58 AM)26% (Apr 15, 5:58 PM)29.87 "Hg (Apr 17, 5:04 AM)
Average48 °F66%30.27 "Hg
* Reported Apr 3 2:58 PM — Apr 18 2:58 PM, Ansbach, Weather by CustomWeather, © 2015

Note: Actual official high and low records may vary slightly from our data, if they occured in-between our weather recording intervals... More about our weather records

Advertising

Ansbach weather history for previous 24 hours

 ConditionsComfort  
Time TempWeatherWind HumidityBarometerVisibility
2:58 PM
Sat, Apr 18
50 °FPassing clouds.8 mph42%30.31 "HgN/A
1:58 PM48 °FSunny.8 mph47%30.31 "HgN/A
12:58 PM48 °FPassing clouds.13 mph50%30.31 "HgN/A
11:58 AM47 °FScattered clouds.14 mph55%30.30 "HgN/A
10:58 AM46 °FPartly sunny.10 mph57%30.29 "HgN/A
9:58 AM45 °FPassing clouds.10 mph57%30.28 "HgN/A
8:58 AM41 °FPartly sunny.8 mph73%30.27 "HgN/A
7:58 AM37 °FPassing clouds.6 mph81%30.26 "HgN/A
6:58 AM36 °FClear.6 mph81%30.24 "HgN/A
5:58 AM36 °FClear.7 mph82%30.22 "HgN/A
4:58 AM37 °FClear.5 mph79%30.21 "HgN/A
3:58 AM38 °FClear.5 mph77%30.19 "HgN/A
2:58 AM39 °FClear.5 mph75%30.19 "HgN/A
1:58 AM41 °FClear.2 mph70%30.18 "HgN/A
12:58 AM41 °FClear.6 mph66%30.16 "HgN/A
11:58 PM
Fri, Apr 17
42 °FClear.6 mph65%30.14 "HgN/A
10:58 PM45 °FClear.8 mph61%30.12 "HgN/A
9:58 PM46 °FPassing clouds.9 mph61%30.10 "HgN/A
8:58 PM47 °FSunny.14 mph57%30.06 "HgN/A
7:58 PM50 °FScattered clouds.18 mph50%30.02 "HgN/A
6:58 PM54 °FScattered clouds.9 mph47%29.98 "HgN/A
5:58 PM52 °FSunny.7 mph62%29.96 "HgN/A
4:58 PM52 °FPassing clouds.6 mph67%29.97 "HgN/A
Weather by CustomWeather, © 2015

See weather overviewHow to use our weather pages